Clinton, MO

8:00 AM CDT on June 23, 2017 (GMT -0500)
Clinton Memorial

Weather History for KGLY - September, 2012

Change the Weather History Date:

Sunday, September 2, 2012

  Actual Average (KSZL) Record (KSZL)
Temperature  
Mean Temperature 79 °F -  
Max Temperature 89 °F 84 °F 104 °F (2000)
Min Temperature 69 °F 63 °F 53 °F (2007)
Cooling Degree Days 14    
Growing Degree Days 29 (Base 50)    
Moisture  
Dew Point 70 °F    
Average Humidity 78    
Maximum Humidity 100    
Minimum Humidity 49    
Precipitation  
Precipitation 0.00 in - - ()
Sea Level Pressure  
Sea Level Pressure 29.92 in    
Wind  
Wind Speed 6 mph (NW)    
Max Wind Speed 10 mph    
Max Gust Speed 16 mph    
Visibility 8 miles    
Events      
Averages and records for this station are not official NWS values.
T = Trace of Precipitation, MM = Missing Value Source: NWS Daily Summary

Daily Weather History Graph

Daily Weather History Graph

Search for Another Location

Airport or City:

Trip Planner

Search our weather history database for the weather conditions in past years. The results will help you decide how hot, cold, wet, or windy it might be!

Date:

Astronomy

Sep. 02, 2012 Rise Set
Actual Time 6:45 AM CDT 7:42 PM CDT
Civil Twilight 6:18 AM CDT 8:09 PM CDT
Nautical Twilight 5:46 AM CDT 8:41 PM CDT
Astronomical Twilight 5:13 AM CDT 9:14 PM CDT
Moon 8:33 PM CDT (9/2) 8:52 AM CDT (9/2)
Length of Visible Light 13h 50m
Length of Day
12h 56m
Waning Gibbous, 95% of the Moon is Illuminated
Sep 2
Waning Gibbous
Sep 8
Last Quarter
Sep 15
New
Sep 22
First Quarter
Sep 29
Full

Hourly Weather History & Observations

Time (CDT) Temp. Heat Index Dew Point Humidity Pressure Visibility Wind Dir Wind Speed Gust Speed Precip Events Conditions
12:15 AM 71.6 °F - 69.8 °F 94% 29.92 in 7.0 mi NNW 9.2 mph - N/A   Unknown
12:35 AM 71.6 °F - 69.8 °F 94% 29.91 in 8.0 mi NNW 8.1 mph - N/A   Unknown
12:55 AM 71.6 °F - 69.8 °F 94% 29.91 in 7.0 mi NNW 6.9 mph - N/A   Unknown
1:15 AM 71.6 °F - 69.8 °F 94% 29.92 in 7.0 mi North 6.9 mph - N/A   Unknown
1:35 AM 71.6 °F - 69.8 °F 94% 29.91 in 7.0 mi NNW 5.8 mph - N/A   Unknown
2:15 AM 71.6 °F - 69.8 °F 94% 29.91 in 9.0 mi NNW 5.8 mph - N/A   Unknown
2:55 AM 69.8 °F - 69.8 °F 100% 29.91 in 9.0 mi WNW 5.8 mph - N/A   Unknown
3:15 AM 71.6 °F - 69.8 °F 94% 29.91 in 8.0 mi West 4.6 mph - N/A   Unknown
3:35 AM 71.6 °F - 69.8 °F 94% 29.91 in 8.0 mi West 5.8 mph - N/A   Unknown
3:55 AM 69.8 °F - 69.8 °F 100% 29.91 in 8.0 mi West 5.8 mph - N/A   Unknown
4:15 AM 69.8 °F - 69.8 °F 100% 29.91 in 7.0 mi WNW 5.8 mph - N/A   Unknown
4:35 AM 69.8 °F - 69.8 °F 100% 29.91 in 8.0 mi West 5.8 mph - N/A   Unknown
4:55 AM 69.8 °F - 68.0 °F 94% 29.92 in 8.0 mi WNW 6.9 mph - N/A   Unknown
5:15 AM 69.8 °F - 68.0 °F 94% 29.91 in 8.0 mi WNW 4.6 mph - N/A   Unknown
5:35 AM 69.8 °F - 68.0 °F 94% 29.91 in 8.0 mi WNW 4.6 mph - N/A   Unknown
5:55 AM 69.8 °F - 68.0 °F 94% 29.92 in 8.0 mi WNW 4.6 mph - N/A   Unknown
6:15 AM 69.8 °F - 68.0 °F 94% 29.92 in 8.0 mi WNW 5.8 mph - N/A   Unknown
6:35 AM 69.8 °F - 68.0 °F 94% 29.93 in 8.0 mi WNW 6.9 mph - N/A   Unknown
6:55 AM 69.8 °F - 68.0 °F 94% 29.93 in 9.0 mi WNW 6.9 mph - N/A   Unknown
7:15 AM 69.8 °F - 66.2 °F 88% 29.93 in 7.0 mi WNW 8.1 mph - N/A   Unknown
7:35 AM 69.8 °F - 66.2 °F 88% 29.93 in 7.0 mi WNW 5.8 mph - N/A   Unknown
7:55 AM 69.8 °F - 66.2 °F 88% 29.94 in 7.0 mi NNW 5.8 mph - N/A   Unknown
8:15 AM 69.8 °F - 66.2 °F 88% 29.94 in 8.0 mi NNW 6.9 mph - N/A   Unknown
8:35 AM 71.6 °F - 66.2 °F 83% 29.94 in 8.0 mi NNW 4.6 mph - N/A   Unknown
8:55 AM 71.6 °F - 66.2 °F 83% 29.94 in 8.0 mi NNW 6.9 mph - N/A   Unknown
9:15 AM 73.4 °F - 66.2 °F 78% 29.95 in 9.0 mi NW 5.8 mph - N/A   Unknown
9:35 AM 73.4 °F - 68.0 °F 83% 29.95 in 8.0 mi WNW 8.1 mph - N/A   Unknown
9:55 AM 75.2 °F - 68.0 °F 78% 29.95 in 9.0 mi North 8.1 mph - N/A   Unknown
10:15 AM 77.0 °F - 68.0 °F 74% 29.96 in 7.0 mi North 6.9 mph - N/A   Unknown
10:35 AM 77.0 °F - 69.8 °F 78% 29.96 in 8.0 mi North 4.6 mph - N/A   Unknown
10:55 AM 78.8 °F - 68.0 °F 69% 29.97 in 8.0 mi NNW 6.9 mph - N/A   Unknown
11:15 AM 78.8 °F - 69.8 °F 74% 29.97 in 8.0 mi WSW 5.8 mph - N/A   Unknown
11:55 AM 80.6 °F 83.9 °F 69.8 °F 70% 29.96 in 8.0 mi NW 8.1 mph - N/A   Unknown
12:15 PM 82.4 °F 86.3 °F 69.8 °F 66% 29.96 in 9.0 mi NW 6.9 mph - N/A   Unknown
12:35 PM 84.2 °F 88.4 °F 69.8 °F 62% 29.95 in 9.0 mi WNW 5.8 mph - N/A   Unknown
12:55 PM 84.2 °F 88.4 °F 69.8 °F 62% 29.94 in 9.0 mi West 6.9 mph - N/A   Unknown
1:15 PM 84.2 °F 88.4 °F 69.8 °F 62% 29.93 in 9.0 mi NNW 9.2 mph - N/A   Unknown
1:35 PM 86.0 °F 90.4 °F 69.8 °F 58% 29.93 in 9.0 mi NNW 9.2 mph 16.1 mph N/A   Unknown
1:55 PM 87.8 °F 92.6 °F 69.8 °F 55% 29.93 in 9.0 mi NNW 9.2 mph - N/A   Unknown
2:15 PM 87.8 °F 92.6 °F 69.8 °F 55% 29.92 in 8.0 mi WNW 8.1 mph - N/A   Unknown
2:35 PM 87.8 °F 92.6 °F 69.8 °F 55% 29.91 in 9.0 mi NW 10.4 mph - N/A   Unknown
2:55 PM 87.8 °F 92.6 °F 69.8 °F 55% 29.90 in 10.0 mi North 6.9 mph - N/A   Unknown
3:15 PM 89.6 °F 94.7 °F 69.8 °F 52% 29.90 in 9.0 mi WNW 10.4 mph - N/A   Unknown
3:55 PM 89.6 °F 93.4 °F 68.0 °F 49% 29.89 in 9.0 mi NW 8.1 mph - N/A   Unknown
4:15 PM 89.6 °F 94.7 °F 69.8 °F 52% 29.89 in 9.0 mi NNW 8.1 mph - N/A   Unknown
4:35 PM 89.6 °F 93.4 °F 68.0 °F 49% 29.89 in 9.0 mi North 5.8 mph - N/A   Unknown
4:55 PM 89.6 °F 93.4 °F 68.0 °F 49% 29.89 in 9.0 mi NNW 10.4 mph - N/A   Unknown
5:15 PM 89.6 °F 94.7 °F 69.8 °F 52% 29.89 in 9.0 mi North 6.9 mph - N/A   Unknown
5:35 PM 89.6 °F 93.4 °F 68.0 °F 49% 29.89 in 10.0 mi North 9.2 mph - N/A   Unknown
5:55 PM 89.6 °F 94.7 °F 69.8 °F 52% 29.89 in 9.0 mi North 4.6 mph - N/A   Unknown
6:15 PM 87.8 °F 92.6 °F 69.8 °F 55% 29.89 in 9.0 mi NNE 4.6 mph - N/A   Unknown
6:35 PM 87.8 °F 92.6 °F 69.8 °F 55% 29.89 in 9.0 mi North 5.8 mph - N/A   Unknown
6:55 PM 86.0 °F 91.8 °F 71.6 °F 62% 29.89 in 9.0 mi North 5.8 mph - N/A   Unknown
7:15 PM 84.2 °F 89.6 °F 71.6 °F 66% 29.88 in 9.0 mi North 5.8 mph - N/A   Unknown
7:35 PM 82.4 °F 87.2 °F 71.6 °F 70% 29.89 in 9.0 mi NE 4.6 mph - N/A   Unknown
7:55 PM 82.4 °F 87.2 °F 71.6 °F 70% 29.89 in 9.0 mi NE 3.5 mph - N/A   Unknown
8:15 PM 80.6 °F 85.4 °F 73.4 °F 79% 29.89 in 10.0 mi Calm Calm - N/A   Unknown
8:35 PM 78.8 °F - 73.4 °F 83% 29.90 in 9.0 mi Calm Calm - N/A   Unknown
8:55 PM 75.2 °F - 71.6 °F 89% 29.91 in 10.0 mi Calm Calm - N/A   Unknown
9:15 PM 75.2 °F - 73.4 °F 94% 29.92 in 8.0 mi Calm Calm - N/A   Unknown
9:35 PM 75.2 °F - 73.4 °F 94% 29.92 in 9.0 mi Calm Calm - N/A   Unknown
9:55 PM 75.2 °F - 71.6 °F 89% 29.92 in 9.0 mi Calm Calm - N/A   Unknown
10:15 PM 75.2 °F - 71.6 °F 89% 29.92 in 10.0 mi Calm Calm - N/A   Unknown
10:35 PM 75.2 °F - 71.6 °F 89% 29.92 in 10.0 mi Calm Calm - N/A   Unknown
10:55 PM 75.2 °F - 71.6 °F 89% 29.92 in 9.0 mi Calm Calm - N/A   Unknown
11:35 PM 73.4 °F - 71.6 °F 94% 29.91 in 8.0 mi Calm Calm - N/A   Unknown
11:55 PM 73.4 °F - 71.6 °F 94% 29.91 in 9.0 mi Calm Calm - N/A   Unknown